When you browse on this site, cookies collect data to enhance your experience and personalize the content and advertising you see.
Visit our Privacy Policy to learn more. By continuing to use the site, you agree to this use of cookies and data.

Hourly Weather Lyutino

Today, 11 July, Saturday

Time Temperature Precipitation Wind Pressure Humidity
00:00 +19°C° 0 mm 3 mps 747 mmHg 96%
01:00 +19°C° 0 mm 4 mps 748 mmHg 96%
02:00 +19°C° 0 mm 4 mps 748 mmHg 96%
03:00 +19°C° 0.2 mm 4 mps 748 mmHg 96%
04:00 +19°C° 0.2 mm 5 mps 747 mmHg 96%
05:00 +19°C° 0.2 mm 5 mps 747 mmHg 96%
06:00 +20°C° 0.2 mm 5 mps 747 mmHg 94%
07:00 +21°C° 0.2 mm 5 mps 748 mmHg 91%
08:00 +22°C° 0 mm 5 mps 748 mmHg 89%
09:00 +23°C° 0 mm 4 mps 748 mmHg 86%
10:00 +25°C° 0 mm 4 mps 748 mmHg 83%
11:00 +25°C° 0 mm 3 mps 749 mmHg 80%
12:00 +26°C° 0.2 mm 3 mps 749 mmHg 77%
13:00 +26°C° 0.2 mm 3 mps 749 mmHg 74%
14:00 +27°C° 0.2 mm 2 mps 749 mmHg 71%
15:00 +26°C° 0.7 mm 3 mps 749 mmHg 74%
16:00 +25°C° 0.7 mm 3 mps 749 mmHg 77%
17:00 +25°C° 0.7 mm 3 mps 749 mmHg 80%
18:00 +22°C° 0.4 mm 3 mps 749 mmHg 82%
19:00 +20°C° 0.4 mm 3 mps 749 mmHg 85%
20:00 +18°C° 0.4 mm 3 mps 749 mmHg 87%
21:00 +18°C° 1.1 mm 3 mps 749 mmHg 89%
22:00 +17°C° 1.1 mm 3 mps 749 mmHg 91%
23:00 +16°C° 1.1 mm 3 mps 750 mmHg 93%

Tomorrow, 12 July, Sunday

Time Temperature Precipitation Wind Pressure Humidity
00:00 +16°C° 0.8 mm 3 mps 750 mmHg 93%
01:00 +14°C° 0.8 mm 4 mps 750 mmHg 93%
02:00 +14°C° 0.8 mm 4 mps 750 mmHg 93%
03:00 +14°C° 0.2 mm 4 mps 750 mmHg 93%
04:00 +13°C° 0.2 mm 3 mps 749 mmHg 93%
05:00 +13°C° 0.2 mm 3 mps 749 mmHg 93%
06:00 +13°C° 0.3 mm 3 mps 749 mmHg 93%
07:00 +13°C° 0.3 mm 4 mps 750 mmHg 93%
08:00 +13°C° 0.3 mm 4 mps 750 mmHg 93%
09:00 +13°C° 0.1 mm 4 mps 750 mmHg 93%
10:00 +13°C° 0.1 mm 4 mps 750 mmHg 92%
11:00 +13°C° 0.1 mm 5 mps 750 mmHg 92%
12:00 +13°C° 0.1 mm 5 mps 750 mmHg 91%
13:00 +13°C° 0.1 mm 5 mps 750 mmHg 90%
14:00 +13°C° 0.1 mm 6 mps 750 mmHg 89%
15:00 +12°C° 0.1 mm 5 mps 750 mmHg 90%
16:00 +12°C° 0.1 mm 5 mps 750 mmHg 91%
17:00 +10°C° 0.1 mm 5 mps 750 mmHg 91%
18:00 +11°C° 0.6 mm 4 mps 750 mmHg 93%
19:00 +11°C° 0.6 mm 4 mps 750 mmHg 94%
20:00 +11°C° 0.6 mm 3 mps 750 mmHg 96%
21:00 +11°C° 0.3 mm 3 mps 750 mmHg 96%
22:00 +10°C° 0.3 mm 3 mps 750 mmHg 96%
23:00 +10°C° 0.3 mm 2 mps 750 mmHg 96%

Day after tomorrow, 13 July, Monday

Time Temperature Precipitation Wind Pressure Humidity
00:00 +10°C° 0 mm 2 mps 750 mmHg 96%
01:00 +9°C° 0 mm 2 mps 750 mmHg 96%
02:00 +9°C° 0 mm 2 mps 750 mmHg 96%
03:00 +9°C° 0 mm 2 mps 749 mmHg 96%
04:00 +9°C° 0 mm 2 mps 749 mmHg 97%
05:00 +9°C° 0 mm 2 mps 749 mmHg 97%
06:00 +10°C° 0 mm 3 mps 749 mmHg 93%
07:00 +12°C° 0 mm 3 mps 749 mmHg 90%
08:00 +14°C° 0 mm 4 mps 749 mmHg 86%
09:00 +15°C° 0 mm 4 mps 749 mmHg 79%
10:00 +18°C° 0 mm 4 mps 749 mmHg 71%
11:00 +19°C° 0 mm 4 mps 749 mmHg 64%
12:00 +20°C° 0 mm 4 mps 749 mmHg 62%
13:00 +20°C° 0 mm 4 mps 749 mmHg 61%
14:00 +20°C° 0 mm 4 mps 748 mmHg 59%
15:00 +20°C° 0 mm 4 mps 748 mmHg 61%
16:00 +20°C° 0 mm 4 mps 748 mmHg 62%
17:00 +20°C° 0 mm 4 mps 748 mmHg 64%
18:00 +18°C° 0 mm 3 mps 747 mmHg 70%
19:00 +17°C° 0 mm 3 mps 747 mmHg 76%
20:00 +15°C° 0 mm 2 mps 747 mmHg 81%
21:00 +14°C° 0 mm 2 mps 747 mmHg 83%
22:00 +13°C° 0 mm 2 mps 747 mmHg 85%
23:00 +11°C° 0 mm 3 mps 747 mmHg 87%

14 July, Tuesday

Time Temperature Precipitation Wind Pressure Humidity
00:00 +12°C° 0 mm 2 mps 747 mmHg 87%
01:00 +10°C° 0 mm 2 mps 748 mmHg 88%
02:00 +10°C° 0 mm 2 mps 748 mmHg 89%
03:00 +10°C° 0 mm 2 mps 748 mmHg 89%
04:00 +10°C° 0 mm 2 mps 748 mmHg 89%
05:00 +10°C° 0 mm 2 mps 748 mmHg 89%
06:00 +13°C° 0 mm 2 mps 748 mmHg 83%
07:00 +15°C° 0 mm 2 mps 748 mmHg 77%
08:00 +17°C° 0 mm 2 mps 748 mmHg 71%
09:00 +18°C° 0 mm 3 mps 748 mmHg 66%
10:00 +20°C° 0 mm 3 mps 748 mmHg 60%
11:00 +21°C° 0 mm 3 mps 748 mmHg 54%
12:00 +22°C° 0 mm 3 mps 748 mmHg 54%
13:00 +22°C° 0 mm 3 mps 748 mmHg 54%
14:00 +22°C° 0 mm 3 mps 748 mmHg 53%
15:00 +22°C° 0 mm 3 mps 748 mmHg 56%
16:00 +22°C° 0 mm 3 mps 748 mmHg 59%
17:00 +22°C° 0 mm 3 mps 747 mmHg 61%
18:00 +20°C° 0.1 mm 2 mps 747 mmHg 69%
19:00 +18°C° 0.1 mm 2 mps 748 mmHg 77%
20:00 +17°C° 0.1 mm 2 mps 748 mmHg 85%
21:00 +16°C° 0 mm 1 mps 748 mmHg 87%
22:00 +15°C° 0 mm 1 mps 748 mmHg 90%
23:00 +14°C° 0 mm 1 mps 748 mmHg 92%

15 July, Wednesday

Time Temperature Precipitation Wind Pressure Humidity
00:00 +14°C° 0 mm 1 mps 748 mmHg 92%
01:00 +13°C° 0 mm 1 mps 748 mmHg 92%
02:00 +13°C° 0 mm 1 mps 748 mmHg 93%
03:00 +13°C° 0 mm 2 mps 748 mmHg 92%
04:00 +12°C° 0 mm 2 mps 748 mmHg 92%
05:00 +12°C° 0 mm 2 mps 748 mmHg 92%
06:00 +14°C° 0 mm 2 mps 748 mmHg 85%
07:00 +16°C° 0 mm 2 mps 748 mmHg 78%
08:00 +18°C° 0 mm 2 mps 748 mmHg 71%
09:00 +19°C° 0 mm 2 mps 748 mmHg 64%
10:00 +21°C° 0 mm 2 mps 748 mmHg 58%
11:00 +23°C° 0 mm 2 mps 748 mmHg 52%
12:00 +23°C° 0 mm 2 mps 748 mmHg 51%
13:00 +24°C° 0 mm 3 mps 747 mmHg 50%
14:00 +24°C° 0 mm 3 mps 747 mmHg 49%
15:00 +24°C° 0 mm 3 mps 747 mmHg 51%
16:00 +22°C° 0 mm 3 mps 747 mmHg 54%
17:00 +23°C° 0 mm 2 mps 747 mmHg 57%
18:00 +20°C° 0 mm 2 mps 747 mmHg 63%
19:00 +20°C° 0 mm 1 mps 746 mmHg 69%
20:00 +18°C° 0 mm 1 mps 746 mmHg 76%
21:00 +16°C° 0 mm 1 mps 746 mmHg 77%
22:00 +15°C° 0 mm 1 mps 746 mmHg 79%
23:00 +13°C° 0 mm 0 mps 746 mmHg 81%

16 July, Thursday

Time Temperature Precipitation Wind Pressure Humidity
00:00 +14°C° 0 mm 1 mps 746 mmHg 82%
01:00 +13°C° 0 mm 1 mps 746 mmHg 82%
02:00 +13°C° 0 mm 1 mps 746 mmHg 83%
03:00 +13°C° 0 mm 1 mps 746 mmHg 84%
04:00 +13°C° 0 mm 1 mps 745 mmHg 85%
05:00 +13°C° 0 mm 1 mps 745 mmHg 85%
06:00 +15°C° 0 mm 1 mps 745 mmHg 79%
07:00 +18°C° 0 mm 1 mps 745 mmHg 73%
08:00 +21°C° 0 mm 1 mps 745 mmHg 67%
09:00 +22°C° 0 mm 1 mps 744 mmHg 63%
10:00 +23°C° 0 mm 1 mps 744 mmHg 58%
11:00 +24°C° 0 mm 1 mps 744 mmHg 53%
12:00 +25°C° 0 mm 1 mps 743 mmHg 53%
13:00 +25°C° 0 mm 2 mps 743 mmHg 52%
14:00 +25°C° 0 mm 2 mps 743 mmHg 52%
15:00 +25°C° 0.6 mm 2 mps 742 mmHg 60%
16:00 +24°C° 0.6 mm 2 mps 742 mmHg 68%
17:00 +22°C° 0.6 mm 3 mps 742 mmHg 77%
18:00 +20°C° 0.4 mm 3 mps 742 mmHg 82%
19:00 +19°C° 0.4 mm 3 mps 742 mmHg 87%
20:00 +17°C° 0.4 mm 3 mps 742 mmHg 92%
21:00 +17°C° 0 mm 3 mps 742 mmHg 93%
22:00 +16°C° 0 mm 3 mps 742 mmHg 95%
23:00 +16°C° 0 mm 3 mps 742 mmHg 97%
Show more